Weather History for Burley, ID

Change the Weather History Date:

Saturday, February 9, 2013

  Actual Average Record
Temperature  
Mean Temperature 29 °F 29 °F  
Max Temperature 32 °F 38 °F 60 °F (1951)
Min Temperature 25 °F 21 °F -4 °F (1956)
Degree Days  
Heating Degree Days 36 36  
Month to date heating degree days 282 328  
Since 1 July heating degree days 4127 4394  
Cooling Degree Days 0 0  
Month to date cooling degree days 0 0  
Year to date cooling degree days 0 0  
Moisture  
Dew Point 23 °F    
Average Humidity 83    
Maximum Humidity 100    
Minimum Humidity 66    
Precipitation  
Precipitation T in 0.03 in 0.36 in (1999)
Month to date precipitation 0.10 0.23  
Year to date precipitation 0.27 1.14  
Sea Level Pressure  
Sea Level Pressure 29.80 in    
Wind  
Wind Speed 16 mph (West)    
Max Wind Speed 25 mph    
Max Gust Speed 33 mph    
Visibility 9 miles    
Events Snow    
T = Trace of Precipitation, MM = Missing Value Source: NWS Daily Summary

Daily Weather History Graph

Daily Weather History Graph

Search for Another Location

Airport:

Trip Planner

Search our weather history database for the weather conditions in past years. The results will help you decide how hot, cold, wet, or windy it might be!

Date:

Astronomy

Feb. 09, 2013 Rise Set
Actual Time 7:39 AM MST 5:59 PM MST
Civil Twilight 7:10 AM MST 6:29 PM MST
Nautical Twilight 6:36 AM MST 7:02 PM MST
Astronomical Twilight 6:04 AM MST 7:35 PM MST
Moon 6:53 AM MST (2/9) 5:47 PM MST (2/9)
Length of Visible Light 11h 18m
Length of Day
10h 20m
Waning Crescent, 0% of the Moon is Illuminated
Feb 9
Waning Crescent
Feb 10
New
Feb 17
First Quarter
Feb 25
Full
Mar 4
Last Quarter

Hourly Weather History & Observations

Time (MST) Temp. Windchill Dew Point Humidity Pressure Visibility Wind Dir Wind Speed Gust Speed Precip Events Conditions
12:06 AM 28.4 °F 18.0 °F 28.4 °F 100% 29.73 in 2.5 mi West 12.7 mph - 0.01 in Snow Light Snow
12:19 AM 28.4 °F 19.1 °F 28.4 °F 100% 29.73 in 2.0 mi West 10.4 mph - 0.01 in Snow Light Snow
12:40 AM 28.4 °F 18.5 °F 26.6 °F 93% 29.73 in 3.0 mi West 11.5 mph 20.7 mph 0.01 in Snow Light Snow
12:51 AM 28.4 °F 17.5 °F 26.6 °F 93% 29.73 in 4.0 mi West 13.8 mph 19.6 mph 0.01 in Snow Light Snow
12:53 AM 28.0 °F 17.0 °F 26.1 °F 92% 29.78 in 4.0 mi West 13.8 mph 20.7 mph 0.01 in Snow Light Snow
1:04 AM 26.6 °F 14.3 °F 26.6 °F 100% 29.72 in 3.0 mi West 16.1 mph 25.3 mph 0.00 in Snow Light Snow
1:24 AM 26.6 °F 15.7 °F 24.8 °F 93% 29.72 in 9.0 mi West 12.7 mph 25.3 mph 0.00 in   Overcast
1:36 AM 26.6 °F 16.8 °F 24.8 °F 93% 29.72 in 10.0 mi West 10.4 mph - 0.00 in   Overcast
1:53 AM 27.0 °F 15.6 °F 25.0 °F 92% 29.78 in 10.0 mi West 13.8 mph 20.7 mph 0.00 in   Overcast
2:04 AM 26.6 °F 15.7 °F 24.8 °F 93% 29.72 in 10.0 mi West 12.7 mph 19.6 mph 0.00 in   Overcast
2:15 AM 26.6 °F 16.8 °F 24.8 °F 93% 29.73 in 10.0 mi West 10.4 mph - 0.00 in   Overcast
2:27 AM 26.6 °F 16.2 °F 24.8 °F 93% 29.73 in 10.0 mi West 11.5 mph 18.4 mph 0.00 in   Overcast
2:37 AM 26.6 °F 16.2 °F 24.8 °F 93% 29.73 in 10.0 mi West 11.5 mph - 0.00 in   Overcast
2:53 AM 26.1 °F 15.0 °F 24.1 °F 92% 29.78 in 10.0 mi West 12.7 mph - 0.00 in   Overcast
3:53 AM 26.1 °F 14.5 °F 23.0 °F 88% 29.76 in 10.0 mi West 13.8 mph 20.7 mph N/A   Overcast
4:22 AM 26.6 °F 14.3 °F 23.0 °F 86% 29.70 in 10.0 mi West 16.1 mph 26.5 mph N/A   Overcast
4:53 AM 26.1 °F 12.0 °F 23.0 °F 88% 29.76 in 10.0 mi West 20.7 mph 29.9 mph N/A   Overcast
5:53 AM 26.1 °F 11.3 °F 21.9 °F 84% 29.77 in 10.0 mi West 23.0 mph 29.9 mph N/A   Overcast
6:53 AM 26.1 °F 13.6 °F 21.9 °F 84% 29.79 in 10.0 mi West 16.1 mph 26.5 mph N/A   Overcast
7:53 AM 25.0 °F 12.2 °F 21.9 °F 88% 29.83 in 10.0 mi West 16.1 mph 23.0 mph N/A   Overcast
8:53 AM 25.0 °F 11.3 °F 21.0 °F 85% 29.85 in 10.0 mi West 18.4 mph 23.0 mph 0.00 in   Overcast
9:53 AM 26.1 °F 13.6 °F 19.9 °F 78% 29.85 in 9.0 mi West 16.1 mph 26.5 mph 0.00 in   Overcast
10:53 AM 27.0 °F 13.9 °F 19.9 °F 75% 29.86 in 10.0 mi West 18.4 mph 25.3 mph N/A   Overcast
11:53 AM 28.0 °F 14.9 °F 21.0 °F 75% 29.87 in 10.0 mi West 19.6 mph 28.8 mph N/A   Overcast
12:53 PM 30.0 °F 18.7 °F 21.0 °F 69% 29.86 in 10.0 mi West 16.1 mph 32.2 mph 0.00 in Snow Light Snow
1:53 PM 30.9 °F 19.1 °F 23.0 °F 72% 29.86 in 10.0 mi West 18.4 mph 28.8 mph 0.00 in   Mostly Cloudy
2:53 PM 32.0 °F 19.8 °F 23.0 °F 69% 29.83 in 10.0 mi West 20.7 mph 29.9 mph N/A   Mostly Cloudy
3:53 PM 32.0 °F 19.5 °F 23.0 °F 69% 29.84 in 10.0 mi West 21.9 mph 31.1 mph 0.00 in   Clear
4:53 PM 30.9 °F 19.4 °F 21.9 °F 69% 29.85 in 10.0 mi West 17.3 mph 25.3 mph N/A   Clear
5:53 PM 30.0 °F 19.5 °F 21.0 °F 69% 29.88 in 10.0 mi WSW 13.8 mph 24.2 mph N/A   Clear
6:53 PM 28.9 °F 18.6 °F 21.0 °F 72% 29.88 in 10.0 mi SW 12.7 mph - N/A   Clear
7:53 PM 30.0 °F 19.5 °F 21.9 °F 72% 29.88 in 10.0 mi SW 13.8 mph - N/A   Mostly Cloudy
8:53 PM 30.0 °F 21.1 °F 23.0 °F 75% 29.88 in 10.0 mi SSW 10.4 mph - N/A   Overcast
9:53 PM 30.9 °F 22.2 °F 23.0 °F 72% 29.88 in 10.0 mi SSW 10.4 mph - N/A   Overcast
10:53 PM 30.0 °F 21.7 °F 23.0 °F 75% 29.86 in 10.0 mi WSW 9.2 mph - N/A   Overcast
11:53 PM 28.9 °F 21.9 °F 24.1 °F 82% 29.88 in 10.0 mi West 6.9 mph - N/A   Overcast